This is the latest recevied weather packets stored in our database for station/object EI8EPB-1. If no packets are shown the sender has not sent any weather packets the latest 10 day(s).
| Time | Temp. | Humidity | Pressure | Rain* | Wind** | Luminosity | Snow |
|---|---|---|---|---|---|---|---|
| 1777908303 | 14.44° C | 77% | 1015.1 hPa | 0 mm | - | - | - |
| 1777908004 | 15° C | 77% | 1015 hPa | 0 mm | - | - | - |
| 1777907703 | 15° C | 76% | 1015.1 hPa | 0 mm | - | - | - |
| 1777907404 | 15.56° C | 76% | 1015.1 hPa | 0 mm | - | - | - |
| 1777907103 | 15.56° C | 76% | 1015.1 hPa | 0 mm | - | - | - |
| 1777906803 | 16.11° C | 76% | 1015 hPa | 0 mm | - | - | - |
| 1777906503 | 16.11° C | 75% | 1015 hPa | 0 mm | - | - | - |
| 1777906203 | 16.67° C | 75% | 1015 hPa | 0 mm | - | - | - |
| 1777905903 | 16.67° C | 69% | 1015 hPa | 0 mm | - | - | - |
| 1777905603 | 16.67° C | 67% | 1014.9 hPa | 0 mm | - | - | - |
| 1777905303 | 16.67° C | 68% | 1014.9 hPa | 0 mm | - | - | - |
| 1777905004 | 17.22° C | 70% | 1014.9 hPa | 0 mm | - | - | - |
| 1777904703 | 17.22° C | 71% | 1014.9 hPa | 0 mm | - | - | - |
| 1777904404 | 17.22° C | 70% | 1014.9 hPa | 0 mm | - | - | - |
| 1777904103 | 16.67° C | 70% | 1015 hPa | 0 mm | - | - | - |
| 1777903803 | 16.67° C | 71% | 1015 hPa | 0 mm | - | - | - |
| 1777903504 | 16.11° C | 73% | 1015 hPa | 0 mm | - | - | - |
| 1777903203 | 16.11° C | 73% | 1015 hPa | 0 mm | - | - | - |
| 1777902904 | 16.11° C | 74% | 1015.1 hPa | 0 mm | - | - | - |
| 1777902604 | 16.11° C | 75% | 1015.1 hPa | 0 mm | - | - | - |
| 1777902303 | 15.56° C | 74% | 1015.1 hPa | 0 mm | - | - | - |
| 1777902003 | 15.56° C | 73% | 1015.2 hPa | 0 mm | - | - | - |
| 1777901705 | 15.56° C | 74% | 1015.2 hPa | 0 mm | - | - | - |
| 1777901403 | 15.56° C | 76% | 1015.2 hPa | 0 mm | - | - | - |
| 1777901104 | 15.56° C | 75% | 1015.2 hPa | 0 mm | - | - | - |
* Rain latest hour (hover to see other rain measurements)
** Current wind speed in m/s (hover to see current wind gust speed)